Change the Weather History Date:

Sunday, September 25, 2011

  Actual Average Record
Temperature  
Mean Temperature 56 °F 60 °F  
Max Temperature 66 °F 72 °F 95 °F (1920)
Min Temperature 46 °F 48 °F 27 °F (1942)
Degree Days  
Heating Degree Days 9 6  
Month to date heating degree days 123 78  
Since 1 July heating degree days 123 92  
Cooling Degree Days 0 1  
Month to date cooling degree days 66 79  
Year to date cooling degree days 1005 806  
Growing Degree Days 5 (Base 50)    
Moisture  
Dew Point 49 °F    
Average Humidity 78    
Maximum Humidity 96    
Minimum Humidity 60    
Precipitation  
Precipitation 0.03 in 0.11 in 1.93 in (1993)
Month to date precipitation 1.26 2.84  
Year to date precipitation 27.30 28.50  
Snow  
Snow 0.00 in 0.00 in 0.00 in ()
Month to date snowfall 0.0 0.0  
Since 1 July snowfall 0.0 0.0  
Since 1 September snowfall 0.0 0.0  
Snow Depth -    
Sea Level Pressure  
Sea Level Pressure 29.91 in    
Wind  
Wind Speed 5 mph (NNE)    
Max Wind Speed 12 mph    
Max Gust Speed 20 mph    
Visibility 8 miles    
Events Fog , Rain    
T = Trace of Precipitation, MM = Missing Value Source: NWS Daily Summary

Daily Weather History Graph

Daily Weather History Graph

Search for Another Location

Airport or City:

Trip Planner

Search our weather history database for the weather conditions in past years. The results will help you decide how hot, cold, wet, or windy it might be!

Date:

Astronomy

Sep. 25, 2011 Rise Set
Actual Time 6:46 AM CDT 6:48 PM CDT
Civil Twilight 6:18 AM CDT 7:16 PM CDT
Nautical Twilight 5:46 AM CDT 7:49 PM CDT
Astronomical Twilight 5:12 AM CDT 8:22 PM CDT
Moon 4:31 AM CDT (9/25) 5:30 PM CDT (9/25)
Length of Visible Light 12h 57m
Length of Day
12h 02m
Waning Crescent, 5% of the Moon is Illuminated
Sep 25
Waning Crescent
Sep 27
New
Oct 3
First Quarter
Oct 11
Full
Oct 19
Last Quarter

Hourly Weather History & Observations

Time (CDT) Temp. Windchill Dew Point Humidity Pressure Visibility Wind Dir Wind Speed Gust Speed Precip Events Conditions
12:54 AM 48.9 °F - 46.9 °F 93% 30.01 in 9.0 mi North 5.8 mph - N/A   Partly Cloudy
1:54 AM 48.9 °F - 46.0 °F 90% 29.98 in 7.0 mi NNE 6.9 mph - N/A   Partly Cloudy
2:54 AM 46.9 °F - 45.0 °F 93% 29.96 in 6.0 mi NNE 4.6 mph - N/A   Partly Cloudy
3:42 AM 48.2 °F - 46.4 °F 93% 29.95 in 1.5 mi North 5.8 mph - N/A   Mostly Cloudy
3:54 AM 48.0 °F - 46.9 °F 96% 29.95 in 2.5 mi NNE 5.8 mph - N/A   Mostly Cloudy
4:01 AM 48.2 °F - 46.4 °F 93% 29.95 in 5.0 mi NNE 4.6 mph - N/A   Mostly Cloudy
4:17 AM 46.4 °F 44.3 °F 44.6 °F 93% 29.95 in 5.0 mi NNE 4.6 mph - N/A   Scattered Clouds
4:54 AM 46.9 °F - 45.0 °F 93% 29.96 in 7.0 mi North 4.6 mph - N/A Fog Patches of Fog
5:54 AM 48.2 °F - 46.4 °F 93% 29.96 in 8.0 mi North 5.8 mph - N/A   Overcast
6:29 AM 48.2 °F - 46.4 °F 93% 29.95 in 7.0 mi NNE 6.9 mph - N/A   Overcast
6:41 AM 48.2 °F - 46.4 °F 93% 29.96 in 6.0 mi NNE 8.1 mph - N/A   Overcast
6:54 AM 48.9 °F - 46.9 °F 93% 29.96 in 6.0 mi NNE 6.9 mph - N/A   Overcast
7:54 AM 51.8 °F - 48.2 °F 88% 29.96 in 5.0 mi NNE 5.8 mph - N/A   Overcast
8:39 AM 55.4 °F - 51.8 °F 88% 29.95 in 8.0 mi North 6.9 mph - N/A   Overcast
8:54 AM 54.0 °F - 51.1 °F 90% 29.96 in 9.0 mi NNE 6.9 mph - N/A   Scattered Clouds
9:54 AM 57.0 °F - 52.0 °F 83% 29.95 in 10.0 mi NNE 6.9 mph - N/A   Mostly Cloudy
10:18 AM 57.2 °F - 51.8 °F 82% 29.93 in 10.0 mi NE 8.1 mph - N/A   Overcast
10:39 AM 57.2 °F - 53.6 °F 88% 29.93 in 6.0 mi ENE 4.6 mph - 0.03 in Rain Light Rain
10:54 AM 57.9 °F - 53.1 °F 84% 29.93 in 10.0 mi ENE 3.5 mph - 0.03 in   Overcast
11:24 AM 57.2 °F - 53.6 °F 88% 29.92 in 10.0 mi ENE 3.5 mph - N/A   Overcast
11:49 AM 59.0 °F - 53.6 °F 82% 29.91 in 10.0 mi ESE 6.9 mph - N/A   Overcast
11:50 AM 59.0 °F - 54.0 °F 83% 29.91 in 10.0 mi East 6.9 mph - N/A   Overcast
12:54 PM 59.0 °F - 52.0 °F 78% 29.90 in 10.0 mi ESE 9.2 mph - N/A   Overcast
1:27 PM 62.6 °F - 53.6 °F 72% 29.87 in 10.0 mi SSE 9.2 mph - N/A   Overcast
1:54 PM 62.1 °F - 52.0 °F 70% 29.86 in 10.0 mi ESE 6.9 mph 19.6 mph N/A   Mostly Cloudy
2:45 PM 64.4 °F - 50.0 °F 59% 29.83 in 10.0 mi Calm Calm - N/A   Mostly Cloudy
2:54 PM 64.0 °F - 50.0 °F 60% 29.83 in 10.0 mi SSW 10.4 mph - N/A   Mostly Cloudy
3:54 PM 62.6 °F - 48.2 °F 59% 29.84 in 10.0 mi SW 9.2 mph - N/A   Overcast
4:54 PM 62.1 °F - 48.9 °F 62% 29.84 in 10.0 mi West 6.9 mph - N/A   Mostly Cloudy
5:54 PM 62.1 °F - 48.9 °F 62% 29.85 in 10.0 mi Calm Calm - N/A   Mostly Cloudy
6:54 PM 57.2 °F - 46.4 °F 67% 29.85 in 10.0 mi Calm Calm - N/A   Scattered Clouds
7:54 PM 53.1 °F - 48.0 °F 83% 29.85 in 10.0 mi Calm Calm - N/A   Mostly Cloudy
8:54 PM 54.0 °F - 48.9 °F 83% 29.85 in 10.0 mi Calm Calm - N/A   Mostly Cloudy
9:43 PM 51.8 °F - 48.2 °F 88% 29.84 in 10.0 mi Calm Calm - N/A   Mostly Cloudy
9:54 PM 52.0 °F - 50.0 °F 93% 29.84 in 10.0 mi Calm Calm - N/A   Mostly Cloudy
10:30 PM 51.8 °F - 48.2 °F 88% 29.83 in 10.0 mi NNE 4.6 mph - N/A   Scattered Clouds
10:54 PM 52.0 °F - 48.0 °F 86% 29.83 in 10.0 mi NNE 4.6 mph - N/A   Scattered Clouds
11:54 PM 51.1 °F - 48.0 °F 89% 29.82 in 10.0 mi North 3.5 mph - N/A   Mostly Cloudy